Location: Availles
(47.9614°N, 1.1964°W)
Time: 11:53:38
(UTC+00:00)

Daily predictions for brighter satellites

Satellite Brightness Start Highest point End
(mag) Time Altitude Azimuth Time Altitude Azimuth Time Altitude Azimuth
Nadezhda 4 Rocket 4.1 16:35:14 10° N 16:41:31 62° ENE 16:47:47 10° SSE
ATLAS 2AS CENTAUR R/B 4.1 16:35:24 10° W 16:42:06 30° NNW 16:48:33 10° NE
Cosmos 990 Rocket 4.0 16:38:19 10° NNW 16:43:30 64° ENE 16:48:37 10° SSE
Cosmos 1697 Rocket 2.9 16:40:11 10° NNW 16:45:41 52° NE 16:51:09 10° SE
FengYun 1-2 T 4.4 16:41:13 10° SE 16:46:37 53° ENE 16:52:00 10° N
Cosmos 1271 Rocket 3.8 16:43:35 10° SSW 16:47:24 48° WNW 16:51:18 10° N
Sich 1 4.0 16:45:43 10° NNE 16:49:16 25° ENE 16:52:50 10° SE
Cosmos 1980 Rocket 2.9 16:44:42 10° NNW 16:49:49 33° NE 16:54:52 10° ESE
NOAA 6 4.3 16:45:10 10° SE 16:50:02 44° ENE 16:54:54 10° N
Cosmos 1805 Rocket 4.2 16:47:26 10° N 16:51:22 32° ENE 16:55:15 10° SE
Cosmos 2221 2.5 16:47:19 10° S 16:51:36 84° E 16:55:56 10° N
Cosmos 2369 4.1 16:46:25 10° NNW 16:51:51 41° NE 16:57:14 10° ESE
CZ-4C R/B 3.3 16:49:19 10° NW 16:55:47 42° NE 17:03:25 10° ESE
Cosmos 1842 Rocket 3.6 16:52:01 10° S 16:56:28 82° E 17:01:00 10° N
USA 234 3.3 16:50:11 10° ESE 16:56:43 76° NNE 17:03:15 10° NW
Cosmos 1092 Rocket 4.2 16:51:13 10° N 16:57:23 49° ENE 17:03:29 10° SSE
Cosmos 2084 3.6 16:53:34 10° NW 16:57:53 85° SW 17:02:21 10° SE
NOSS 3-1 (A) 4.2 16:50:46 10° NW 16:58:12 88° NE 17:06:58 10° SE
USA 306 3.7 16:55:46 10° WNW 16:59:45 37° N 17:03:35 11° ENE
SL-16 R/B 3.7 16:57:09 10° N 17:00:39 16° NE 17:04:09 10° ENE
Cosmos 1812 4.5 16:58:39 10° ESE 17:00:40 14° E 17:02:43 10° NE
ISS -3.6 16:57:58 10° WNW 17:01:20 57° NNE 17:04:41 10° E
Meteor 1-25 Rocket 4.2 16:57:35 10° N 17:03:06 59° ENE 17:08:38 10° SSE
NOSS 2-2 (D) 4.4 16:59:00 10° NNW 17:03:48 50° NE 17:10:23 10° ESE
NOSS 2-2 (E) 4.4 16:59:08 10° NW 17:04:09 59° NE 17:11:11 10° SE
SMAP 3.1 17:01:24 10° SSE 17:05:57 58° ENE 17:10:32 10° N
Cosmos 2082 Rocket 3.2 17:01:19 10° SSE 17:06:00 27° ESE 17:10:42 10° NE
Meteor PRIRODA 3.7 17:02:58 10° S 17:06:36 81° WSW 17:10:15 10° NNW
Cosmos 1939 Rocket 2.9 17:03:05 10° SSE 17:07:09 62° ENE 17:11:11 10° N
CORIOLIS 4.2 17:03:40 10° SSE 17:08:57 58° ENE 17:14:17 10° N
Cosmos 44 Rocket 4.4 17:06:45 10° NNW 17:10:49 24° NNE 17:14:23 12° E
NOAA 12 4.2 17:06:50 10° SSE 17:12:10 84° WSW 17:17:31 10° NNW
CZ-4B DEB 4.3 17:09:57 10° SE 17:15:20 57° ENE 17:20:43 10° N
Cosmos 2278 4.2 17:10:36 10° NNW 17:15:53 37° NE 17:21:08 10° ESE
Cosmos 1602 3.8 17:12:52 10° N 17:16:40 55° ENE 17:20:28 10° SSE
USA 307 3.8 17:14:36 10° WNW 17:18:35 36° N 17:21:38 15° ENE
Cosmos 1627 Rocket 4.5 17:12:46 10° N 17:18:54 60° ENE 17:24:56 10° SSE
AQUARIUS 4.1 17:15:24 10° SSE 17:19:51 66° ENE 17:24:19 10° N
Cosmos 540 Rocket 3.6 17:15:59 10° S 17:20:54 51° ESE 17:25:51 10° NNE
Cosmos 2034 Rocket 4.1 17:16:12 10° S 17:22:22 82° W 17:28:34 10° N
Radarsat 4.5 17:19:10 10° SSE 17:24:20 75° ENE 17:29:33 10° NNW
ARGOS 3.8 17:20:52 10° SE 17:25:37 33° ENE 17:30:23 10° N
COSMO-SKYMED 1 3.7 17:23:24 14° NE 17:26:02 23° E 17:29:32 10° SSE
COSMOS 2406 3.3 17:20:49 10° SSW 17:26:28 62° ESE 17:32:08 10° NNE
Cosmos 1833 Rocket 2.7 17:22:10 10° SSW 17:27:46 80° ESE 17:33:25 10° NNE
SL-08 R/B 4.2 17:24:55 10° N 17:29:28 49° WNW 17:33:56 10° SW
Cosmos 1782 3.0 17:25:40 10° SSE 17:29:30 47° E 17:33:21 10° NNE
Meteor 2-21 4.4 17:23:51 10° N 17:29:55 64° ENE 17:35:54 10° SSE
ATLAS 5 CENTAUR R/B 3.2 17:22:14 10° NW 17:30:58 36° NNE 17:33:09 20° ENE
ATLAS CENTAUR R/B 3.8 17:31:47 10° WNW 17:34:22 15° NNW 17:37:01 10° NNE
Cosmos 1633 Rocket 3.7 17:30:34 10° N 17:34:32 33° ENE 17:38:30 10° SE
Cosmos 1818 4.2 17:29:58 10° NNW 17:35:03 36° NE 17:38:50 16° E
Cosmos 468 Rocket 4.1 17:30:20 10° SSW 17:35:29 77° WNW 17:40:44 10° NNE
YAOGAN 1 4.2 17:39:35 16° NE 17:39:35 16° NE 17:41:08 10° NNE
Cosmos 1898 Rocket 4.0 17:33:27 10° NNW 17:38:39 62° WSW 17:43:46 10° S
Cosmos 1340 Rocket 4.5 17:35:41 10° NNW 17:39:28 38° W 17:43:15 10° SSW
ERBS 4.1 17:37:19 10° WNW 17:39:44 19° NNW 17:41:01 16° NNE
CZ-2D R/B 3.1 17:36:49 10° SSE 17:40:37 67° ENE 17:44:25 10° N
GEOS 3 Rocket 4.3 17:37:58 18° E 17:41:03 34° NE 17:45:40 10° NNW
USA 308 3.8 17:37:16 10° WNW 17:41:14 36° N 17:43:14 23° NE
Cosmos 1634 Rocket 4.0 17:36:45 10° S 17:43:02 72° E 17:49:21 10° NNE
COSMOS 2455 2.9 17:37:45 10° SSW 17:43:39 60° ESE 17:48:13 18° NE
PAYLOAD B 4.2 17:39:32 10° SSE 17:45:08 78° ENE 17:50:45 10° NNW
CZ-2C R/B 3.0 17:40:41 10° NNE 17:45:34 40° E 17:50:24 10° SSE
Cosmos 1500 3.0 17:42:27 10° N 17:46:13 79° E 17:49:56 10° SSE
CZ-4B R/B 3.2 17:42:24 10° SSE 17:47:41 58° ENE 17:52:56 10° N
Cosmos 2026 Rocket 3.9 17:41:34 10° N 17:47:45 89° WSW 17:53:49 10° S
Cosmos 1151 Rocket 3.3 17:44:26 10° SSE 17:48:32 43° E 17:51:27 18° NNE
Lacrosse 5 rocket 1.9 17:45:47 10° NW 17:49:25 37° NNE 17:50:36 30° ENE
Okean O Rocket 1.9 17:47:29 10° SE 17:51:44 46° ENE 17:56:01 10° N
Meteor 2-14 Rocket 4.4 17:46:54 10° N 17:53:02 87° W 17:59:07 10° S
Cosmos 1666 Rocket 3.4 17:56:02 10° N 18:00:30 71° E 18:04:53 10° SSE
NOSS 2-2 (C) 4.5 17:56:09 10° NW 18:01:19 79° SW 18:08:37 10° SSE
Meteor 1-11 Rocket 4.3 17:57:19 10° N 18:02:24 33° ENE 18:05:45 19° ESE
Cosmos 2150 Rocket 4.5 17:58:45 10° N 18:03:32 36° ENE 18:04:48 32° E
Cosmos 1470 Rocket 4.0 17:59:28 10° N 18:03:39 38° ENE 18:07:51 10° SE
H-2A R/B 2.0 17:58:38 10° SSE 18:03:50 83° WSW 18:08:53 10° NNW
Meteor 1-26 Rocket 4.4 17:58:46 10° SSW 18:04:45 84° WNW 18:10:51 10° N
USA 267 3.4 18:01:04 22° NE 18:05:28 68° NNW 18:11:57 10° WSW
Cosmos 1655 Rocket 4.2 17:59:34 10° N 18:05:43 46° ENE 18:11:48 10° SE
Cosmos 1328 Rocket 3.8 18:01:47 10° SSE 18:06:03 47° E 18:07:30 34° NE
Cosmos 2360 Rocket 3.5 18:03:26 10° N 18:07:09 21° NNE 18:07:09 21° NNE
USA 305 3.5 18:04:01 10° WNW 18:08:00 38° N 18:08:46 35° NE
Landsat 5 3.7 18:08:41 41° E 18:08:42 42° E 18:12:30 10° S
SKYMED 2 3.4 18:12:00 27° NNE 18:14:21 70° ESE 18:18:40 10° S
Cosmos 2180 Rocket 4.5 18:08:37 10° S 18:14:50 62° E 18:21:02 10° NNE
Cosmos 841 Rocket 3.6 18:09:52 10° SSW 18:15:01 74° WNW 18:18:54 18° NNE
Cosmos 1666 2.5 18:11:56 10° N 18:15:41 86° W 18:19:23 10° S
Feng Yun 1-1 Rocket 4.4 18:11:22 10° SE 18:17:09 57° ENE 18:22:53 10° N
Meteor 2-8 Rocket 4.4 18:12:21 10° S 18:18:25 63° E 18:24:30 10° NNE
ATLAS CENTAUR R/B 2.8 18:10:31 10° WSW 18:19:08 64° NW 18:20:44 38° NNE
Cosmos 1125 Rocket 3.7 18:16:40 10° NNW 18:21:43 46° ENE 18:22:14 45° ENE
Cosmos 2322 Rocket 2.7 18:22:43 10° NNW 18:27:49 39° NE 18:27:49 39° NE
Cosmos 1980 Rocket 3.1 18:28:35 10° NW 18:34:02 49° WSW 18:39:26 10° S
SL-08 RB Rocket 3.6 18:30:19 10° SSE 18:34:57 84° ENE 18:39:36 10° NNW
ATLAS 2AS CENTAUR R/B 4.1 18:29:34 10° NW 18:35:31 24° N 18:37:26 22° NNE
Cosmos 1812 3.5 18:32:14 10° SSW 18:35:59 50° WNW 18:37:47 27° NNW
ISS -2.5 18:34:54 10° WNW 18:37:58 39° SW 18:37:58 39° SW
USA 234 4.4 18:33:57 10° SSE 18:40:02 41° SW 18:46:09 10° WNW
USA 306 3.7 18:36:10 10° WNW 18:39:35 41° NNW 18:39:35 41° NNW
deb Chang Zheng 4 4.4 18:36:52 10° S 18:41:03 49° W 18:45:16 10° NNW
CZ-4C R/B 3.2 18:37:42 10° NW 18:44:55 70° SW 18:53:18 10° SSE
SL-16 R/B 2.1 18:40:16 10° NNW 18:45:56 65° ENE 18:46:11 64° ENE
Cosmos 2082 Rocket 2.8 18:44:11 10° SW 18:49:45 55° WNW 18:52:35 28° N
Cosmos 44 Rocket 3.2 18:47:58 10° NW 18:52:55 78° SW 18:53:10 75° SSW
Cosmos 2333 Rocket 4.0 18:52:17 10° N 18:54:26 19° N 18:54:26 19° N
USA 307 4.2 18:54:56 10° WNW 18:57:40 34° NW 18:57:40 34° NW
COSMO-SKYMED 1 3.8 19:00:37 27° NNW 19:02:20 39° WNW 19:06:22 10° SW
ARGOS 4.3 19:00:39 10° SSW 19:05:46 42° W 19:10:54 10° NNW
Cosmos 2298 Rocket 4.2 19:03:20 10° NNW 19:08:37 68° WSW 19:09:28 58° SSW
Cosmos 2266 Rocket 4.4 19:08:31 10° NNW 19:14:50 65° W 19:21:09 10° S
Cosmos 1818 4.2 19:13:31 10° NW 19:18:50 52° WSW 19:19:33 48° SSW
GEOS 3 Rocket 3.9 19:19:06 65° WSW 19:19:06 65° WSW 19:24:02 10° NW
Cosmos 2219 Rocket 4.3 19:16:54 10° NNW 19:18:11 16° N 19:18:11 16° N
CZ-2C R/B 4.2 19:22:06 14° N 19:25:45 32° WNW 19:30:17 10° SW
Okean O Rocket 4.1 19:24:53 10° SW 19:28:18 21° W 19:31:44 10° NW
Lacrosse 5 rocket 3.7 19:24:45 10° WNW 19:26:13 21° WNW 19:26:13 21° WNW
COSMOS 2455 4.1 19:24:32 10° WSW 19:29:57 34° NW 19:31:24 30° NNW
BREEZE-M DEB (TANK) 4.2 19:24:07 10° SW 19:44:57 74° SSE 19:44:57 74° SSE
USA 267 4.0 19:48:24 41° NNW 19:48:24 41° NNW 19:54:00 10° WNW
Cosmos 2360 Rocket 4.0 19:46:48 10° NNW 19:48:57 24° NNW 19:48:57 24° NNW
Cosmos 2322 Rocket 4.0 20:06:52 10° NW 20:09:40 26° WNW 20:09:40 26° WNW
ATLAS 2AS CENTAUR R/B 4.4 20:21:40 10° NW 20:24:52 25° NNW 20:24:52 25° NNW
SL-16 R/B 4.4 20:25:14 10° NW 20:28:07 20° W 20:28:07 20° W
